Location: ??? ????
(38.0580°N, 23.1536°E)
Time: 06:30:22
(UTC+00:00)

Cosmos 2219 - Pass Details

Date: 13 December 2025
Orbit: 830 x 860 km, 71.1° (Epoch: 20 January)

Event Time Altitude Azimuth Distance (km) Brightness Sun altitude
Rises 15:58:09 0° 347° (NNW) 3,434 6.3 -9.7°
Reaches altitude 10° 16:00:56 10° 358° (N) 2,498 5.5 -10.2°
Maximum altitude 16:05:55 30° 59° (ENE) 1,507 4.0 -11.1°
Drops below altitude 10° 16:10:53 10° 119° (ESE) 2,492 5.3 -12.0°
Sets 16:13:38 0° 130° (SE) 3,424 6.1 -12.5°
